Regional Weather Roundup
Issued by NWS

Home | Current Version | Previous Version | Text Only | Print | Product List | Glossary On
Versions: 1 2 3 4 5 6 7 8 9 10 11 12 13 14 15 16 17 18 19 20 21 22 23 24 25 26 27 28 29 30 31 32 33 34 35 36 37 38 39 40 41 42 43 44 45 46 47 48 49 50
000
ASUS43 KDTX 291010
RWRMI
MICHIGAN HOURLY REGIONAL WEATHER ROUNDUP
NATIONAL WEATHER SERVICE DETROIT/PONTIAC MI
600 AM EDT FRI JUL 29 2016

NOTE: "FAIR" INDICATES FEW OR NO CLOUDS BELOW 12,000 FEET WITH NO
SIGNIFICANT WEATHER AND/OR OBSTRUCTION TO VISIBILITY.

MIZ047>049-052>055-059>063-066>070-074>076-081>083-291100-
SOUTHEAST LOWER MICHIGAN

CITY           SKY/WX    TMP DP  RH WIND       PRES   REMARKS
ADRIAN         PTCLDY    65  63  93 N5        29.94S
ALMA           CLOUDY    66  64  94 N5        29.98R
ANN ARBOR      CLEAR     67  60  78 N6        29.94R
BAD AXE        LGT RAIN  66  62  87 NE9       29.98R
CARO           LGT RAIN  66  62  87 N3        29.96S
DETROIT CITY   CLEAR     69  64  84 N8        29.93R
DETROIT        CLOUDY    68  60  75 N6        29.93R
FLINT          PTCLDY    69  62  78 N5        29.96S
GROSSE ILE     CLEAR     70  64  80 N7        29.91S
HILLSDALE      CLEAR     65  61  87 CALM      29.94S
HOWELL         MOCLDY    65  62  90 CALM      29.96R

CITY           SKY/WX    TMP DP  RH WIND       PRES   REMARKS
JACKSON        PTCLDY    65  62  90 NE5       29.95S
LAMBERTVILLE   CLOUDY    68  59  73 CALM      29.93R
LANSING        PTCLDY    65  60  84 NE8       29.96S
LAPEER         CLOUDY    65  62  90 CALM      29.97R
MASON          CLOUDY    65  61  89 NW6       29.96S
MONROE         CLOUDY    64  61  91 CALM      29.92R
MT. CLEMENS    CLOUDY    67  64  90 N5        29.91S
PONTIAC        PTCLDY    66  62  87 NE5       29.94S
PORT HOPE        N/A     70  64  81 NE22      29.97R
PORT HURON     CLOUDY    64  63  94 CALM      29.94R
TRI CITIES     CLOUDY    67  64  90 N6        29.98R
MIDLAND        CLOUDY    64  59  85 N6        29.98R
TROY           CLEAR     71  62  73 N3        29.96R
SAGINAW HB     CLOUDY    68  61  77 NE7       29.97R
$$
MIZ043>046-050>051-056>058-064>065-071>073-077>080-291100-
SOUTHWEST LOWER MICHIGAN

CITY           SKY/WX    TMP DP  RH WIND       PRES   REMARKS
BATTLE CREEK   LGT RAIN  65  65 100 NE3       29.95S
BENTON HARBOR  CLEAR     67  64  90 E5        29.91S
BIG RAPIDS     RAIN      64  64 100 E3        30.01R
COLDWATER      CLOUDY    68  64  87 E5        29.94R
FREMONT        CLOUDY    64  64 100 E8G17     29.98S
HOLLAND        PTCLDY    68  62  81 VRB6      29.94R
GRAND RAPIDS   LGT RAIN  66  62  87 NE7       29.96R
IONIA          CLOUDY    65  60  83 NE5       29.95S
KALAMAZOO      CLOUDY    69  64  84 CALM      29.93S
LUDINGTON      CLOUDY    63  62  99 NE7       29.99R
MARSHALL       CLOUDY    67  63  86 NE3       29.94R
MOUNT PLEASANT CLOUDY    65  60  82 NE3       29.98S
MUSKEGON       LGT RAIN  66  65  96 NE12      29.96S
SOUTH HAVEN    CLEAR     67  66  97 E5        29.92R
$$
MIZ016>042-291100-
NORTHERN LOWER MICHIGAN

CITY           SKY/WX    TMP DP  RH WIND       PRES   REMARKS
ALPENA         PTCLDY    61  55  81 NE3       30.05R
BEAVER ISLAND  PTCLDY    65  59  82 E12G18    30.04S
BELLAIRE       CLOUDY    59  55  88 CALM      30.03R
CADILLAC       LGT RAIN  61  59  94 NE5       30.03R
CHARLEVOIX     CLOUDY    66  58  77 E8        30.06R
FRANKFORT      CLOUDY    64  60  88 E6        30.01S
GAYLORD        PTCLDY    61  55  81 NE6       30.05R
GRAYLING       CLOUDY    62  57  84 CALM      30.04S
HARBOR SPRINGS CLOUDY    63  58  86 NE8       30.04R
HOUGHTON LAKE  LGT RAIN  61  59  93 N3        30.04S
MANISTEE       LGT RAIN  63  61  93 E8        30.00R
OSCODA         MOCLDY    68  58  70 NE10      30.00R
PELLSTON       PTCLDY    54  51  90 NE3       30.06R
ROGERS CITY    PTCLDY    65  56  74 E8        30.06S
TRAVERSE CITY  CLOUDY    65  62  90 CALM      30.01R
$$
MIZ007>008-015-291100-
EASTERN UPPER MICHIGAN

CITY           SKY/WX    TMP DP  RH WIND       PRES   REMARKS
KINROSS        PTCLDY    58  53  84 CALM      30.08R
MACKINAC ISLAN PTCLDY    63  56  80 E8        30.06R
NEWBERRY       CLOUDY    54  54 100 NE3       30.07R
S. S. MARIE    CLOUDY    59  53  80 NE3       30.07R
MUNISING         N/A     55  52  89 CALM      30.06R
$$
MIZ004>006-011>014-085-291100-
CENTRAL UPPER MICHIGAN

CITY           SKY/WX    TMP DP  RH WIND       PRES   REMARKS
MANISTIQUE     CLOUDY    55  54  94 NE6       30.05R
ESCANABA       CLEAR     57  54  88 N3        30.03S
MENOMINEE      MOCLDY   N/A N/A N/A N7        30.04R
SAWYER-GWINN   CLEAR     57  54  88 NE6       30.08R
$$
MIZ001>003-009>011-084-291100-
WESTERN UPPER MICHIGAN

CITY           SKY/WX    TMP DP  RH WIND       PRES   REMARKS
IRON MOUNTAIN  CLEAR     51  48  89 CALM      30.06R
HOUGHTON       CLEAR     51  47  86 N5        30.09S
COPPER HARBOR    N/A     54  52  93 W6        30.09R
IRONWOOD       CLEAR     45  43  93 CALM      30.10R
$$

ABBREVIATIONS USED IN REMARKS
   TC - TEMPERATURE IN CELSIUS
  WCI - WIND CHILL INDEX
   HX - HEAT INDEX
  VSB - VISIBILITY





USA.gov is the U.S. government's official web portal to all federal, state and local government web resources and services.